Location: Antioch Church
(34.9543°N, 88.5145°W)
Time: 14:39:26
(UTC+00:00)

Cosmos 407 Rocket - Pass Details

Date: 11 December 2019
Orbit: 743 x 787 km, 74.0° (Epoch: 27 January)

Event Time Altitude Azimuth Distance (km) Brightness Sun altitude
Exits shadow 11:02:41 40° 245° (WSW) 1,149 4.0 -21.7°
Drops below altitude 10° 11:07:10 10° 190° (S) 2,336 6.0 -20.8°
Sets 11:09:39 0° 183° (S) 3,257 6.9 -20.3°
